1997-01-01 01:00:00,0.832,0.831
1997-01-01 02:00:00,0.832,0.832
1997-01-01 03:00:00,0.831,0.831
1997-01-01 04:00:00,0.832,0.830
1997-01-01 05:00:00,0.831,0.833
1997-01-01 06:00:00,0.830,0.832
1997-01-01 07:00:00,0.829,0.830
1997-01-01 08:00:00,0.826,0.826
1997-01-01 09:00:00,0.825,0.825
1997-01-01 10:00:00,0.826,0.826
1997-01-01 11:00:00,0.823,0.824
1997-01-01 12:00:00,0.821,0.821
1997-01-01 13:00:00,0.819,0.818
1997-01-01 14:00:00,0.819,0.819
1997-01-01 15:00:00,0.820,0.818
1997-01-01 16:00:00,0.820,0.821
1997-01-01 17:00:00,0.821,0.823
1997-01-01 18:00:00,0.822,0.820
1997-01-01 19:00:00,0.821,0.819
1997-01-01 20:00:00,0.820,0.820
1997-01-01 21:00:00,0.822,0.825
1997-01-01 22:00:00,0.822,0.823
1997-01-01 23:00:00,0.821,0.823
1997-01-02 00:00:00,0.823,0.824
1997-01-02 01:00:00,0.823,0.827
1997-01-02 02:00:00,0.824,0.825
1997-01-02 03:00:00,0.825,0.826
1997-01-02 04:00:00,0.825,0.823
1997-01-02 05:00:00,0.825,0.825
1997-01-02 06:00:00,0.826,0.828
1997-01-02 07:00:00,0.825,0.825
1997-01-02 08:00:00,0.826,0.825
1997-01-02 09:00:00,0.826,0.826
1997-01-02 10:00:00,0.826,0.826
1997-01-02 11:00:00,0.826,0.825
1997-01-02 12:00:00,0.823,0.824
1997-01-02 13:00:00,0.821,0.824
1997-01-02 14:00:00,0.830,0.832
1997-01-02 15:00:00,0.823,0.820
1997-01-02 16:00:00,0.824,0.826
1997-01-02 17:00:00,0.827,0.824
1997-01-02 18:00:00,0.819,0.814
1997-01-02 19:00:00,0.815,0.807
1997-01-02 20:00:00,0.801,0.722
1997-01-02 21:00:00,0.740,0.684
1997-01-02 22:00:00,0.708,0.708
1997-01-02 23:00:00,0.711,0.709
1997-01-03 00:00:00,0.718,0.718
1997-01-03 01:00:00,0.715,0.717
1997-01-03 02:00:00,0.725,0.737
1997-01-03 03:00:00,0.751,0.766
1997-01-03 04:00:00,0.797,0.819
1997-01-03 05:00:00,0.809,0.796
1997-01-03 06:00:00,0.781,0.778
1997-01-03 07:00:00,0.777,0.775
1997-01-03 08:00:00,0.776,0.778
1997-01-03 09:00:00,0.776,0.777
1997-01-03 10:00:00,0.775,0.778
1997-01-03 11:00:00,0.775,0.781
1997-01-03 12:00:00,0.774,0.771
1997-01-03 13:00:00,0.774,0.774
1997-01-03 14:00:00,0.774,0.772
1997-01-03 15:00:00,0.773,0.775
1997-01-03 16:00:00,0.775,0.775
1997-01-03 17:00:00,0.776,0.776
1997-01-03 18:00:00,0.776,0.774
1997-01-03 19:00:00,0.774,0.774
1997-01-03 20:00:00,0.775,0.776
1997-01-03 21:00:00,0.775,0.775
1997-01-03 22:00:00,0.775,0.777
1997-01-03 23:00:00,0.775,0.776
1997-01-04 00:00:00,0.776,0.775
1997-01-04 01:00:00,0.776,0.779
1997-01-04 02:00:00,0.776,0.779
1997-01-04 03:00:00,0.778,0.778
1997-01-04 04:00:00,0.778,0.778
1997-01-04 05:00:00,0.779,0.782
1997-01-04 06:00:00,0.784,0.786
1997-01-04 07:00:00,0.787,0.791
1997-01-04 08:00:00,0.793,0.790
1997-01-04 09:00:00,0.793,0.793
1997-01-04 10:00:00,0.792,0.788
1997-01-04 11:00:00,0.791,0.788
1997-01-04 12:00:00,0.789,0.790
1997-01-04 13:00:00,0.790,0.789
1997-01-04 14:00:00,0.790,0.785
1997-01-04 15:00:00,0.792,0.792
1997-01-04 16:00:00,0.789,0.787
1997-01-04 17:00:00,0.779,0.776
1997-01-04 18:00:00,0.776,0.775
1997-01-04 19:00:00,0.775,0.775
1997-01-04 20:00:00,0.776,0.775
1997-01-04 21:00:00,0.776,0.776
1997-01-04 22:00:00,0.776,0.776
1997-01-04 23:00:00,0.775,0.775
1997-01-05 00:00:00,0.776,0.776
1997-01-05 01:00:00,0.776,0.775
1997-01-05 02:00:00,0.776,0.776
1997-01-05 03:00:00,0.776,0.776
1997-01-05 04:00:00,0.776,0.776
1997-01-05 05:00:00,0.776,0.776
1997-01-05 06:00:00,0.775,0.774
1997-01-05 07:00:00,0.782,0.786
1997-01-05 08:00:00,0.787,0.791
1997-01-05 09:00:00,0.794,0.794
1997-01-05 10:00:00,0.803,0.809
1997-01-05 11:00:00,0.807,0.806
1997-01-05 12:00:00,0.805,0.802
1997-01-05 13:00:00,0.805,0.806
1997-01-05 14:00:00,0.801,0.804
1997-01-05 15:00:00,0.802,0.786
1997-01-05 16:00:00,0.794,0.792
1997-01-05 17:00:00,0.790,0.786
1997-01-05 18:00:00,0.782,0.779
1997-01-05 19:00:00,0.776,0.776
1997-01-05 20:00:00,0.775,0.775
1997-01-05 21:00:00,0.775,0.776
1997-01-05 22:00:00,0.775,0.775
1997-01-05 23:00:00,0.775,0.775
1997-01-06 00:00:00,0.775,0.774
1997-01-06 01:00:00,0.775,0.774
1997-01-06 02:00:00,0.776,0.778
1997-01-06 03:00:00,0.776,0.776
1997-01-06 04:00:00,0.773,0.769
1997-01-06 05:00:00,0.769,0.766
1997-01-06 06:00:00,0.768,0.768
1997-01-06 07:00:00,0.768,0.768
1997-01-06 08:00:00,0.767,0.769
1997-01-06 09:00:00,0.768,0.767
1997-01-06 10:00:00,0.768,0.765
1997-01-06 11:00:00,0.768,0.766
1997-01-06 12:00:00,0.767,0.765
1997-01-06 13:00:00,0.767,0.766
1997-01-06 14:00:00,0.767,0.768
1997-01-06 15:00:00,0.767,0.766
1997-01-06 16:00:00,0.767,0.768
1997-01-06 17:00:00,0.767,0.767
1997-01-06 18:00:00,0.767,0.767
1997-01-06 19:00:00,0.765,0.764
1997-01-06 20:00:00,0.764,0.766
1997-01-06 21:00:00,0.765,0.765
1997-01-06 22:00:00,0.765,0.765
1997-01-06 23:00:00,0.765,0.766
1997-01-07 00:00:00,0.765,0.762
1997-01-07 01:00:00,0.764,0.764
1997-01-07 02:00:00,0.765,0.764
1997-01-07 03:00:00,0.765,0.763
1997-01-07 04:00:00,0.764,0.765
1997-01-07 05:00:00,0.764,0.763
1997-01-07 06:00:00,0.764,0.763
1997-01-07 07:00:00,0.764,0.763
1997-01-07 08:00:00,0.764,0.766
1997-01-07 09:00:00,0.765,0.762
1997-01-07 10:00:00,0.776,0.782
1997-01-07 11:00:00,0.779,0.781
1997-01-07 12:00:00,0.769,0.766
1997-01-07 13:00:00,0.765,0.765
1997-01-07 14:00:00,0.765,0.765
1997-01-07 15:00:00,0.764,0.763
1997-01-07 16:00:00,0.764,0.766
1997-01-07 17:00:00,0.764,0.764
1997-01-07 18:00:00,0.764,0.765
1997-01-07 19:00:00,0.764,0.764
1997-01-07 20:00:00,0.764,0.766
1997-01-07 21:00:00,0.765,0.765
1997-01-07 22:00:00,0.766,0.766
1997-01-07 23:00:00,0.765,0.765
1997-01-08 00:00:00,0.764,0.763
1997-01-08 01:00:00,0.764,0.763
1997-01-08 02:00:00,0.763,0.759
1997-01-08 03:00:00,0.763,0.763
1997-01-08 04:00:00,0.764,0.763
1997-01-08 05:00:00,0.764,0.766
1997-01-08 06:00:00,0.763,0.761
1997-01-08 07:00:00,0.763,0.762
1997-01-08 08:00:00,0.763,0.766
1997-01-08 09:00:00,0.762,0.759
1997-01-08 10:00:00,0.763,0.763
1997-01-08 11:00:00,0.762,0.759
1997-01-08 12:00:00,0.763,0.761
1997-01-08 13:00:00,0.762,0.762
1997-01-08 14:00:00,0.762,0.759
1997-01-08 15:00:00,0.763,0.760
1997-01-08 16:00:00,0.764,0.763
1997-01-08 17:00:00,0.762,0.762
1997-01-08 18:00:00,0.762,0.759
1997-01-08 19:00:00,0.762,0.766
1997-01-08 20:00:00,0.763,0.763
1997-01-08 21:00:00,0.763,0.766
1997-01-08 22:00:00,0.764,0.763
1997-01-08 23:00:00,0.765,0.765
1997-01-09 00:00:00,0.765,0.765
1997-01-09 01:00:00,0.765,0.764
1997-01-09 02:00:00,0.765,0.765
1997-01-09 03:00:00,0.765,0.765
1997-01-09 04:00:00,0.766,0.765
1997-01-09 05:00:00,0.766,0.766
1997-01-09 06:00:00,0.765,0.764
1997-01-09 07:00:00,0.765,0.765
1997-01-09 08:00:00,0.765,0.764
1997-01-09 09:00:00,0.765,0.765
1997-01-09 10:00:00,0.766,0.765
1997-01-09 11:00:00,0.766,0.765
1997-01-09 12:00:00,0.769,0.773
1997-01-09 13:00:00,0.777,0.768
1997-01-09 14:00:00,0.767,0.764
1997-01-09 15:00:00,0.765,0.764
1997-01-09 16:00:00,0.766,0.765
1997-01-09 17:00:00,0.791,0.793
1997-01-09 18:00:00,0.770,0.765
1997-01-09 19:00:00,0.765,0.765
1997-01-09 20:00:00,0.765,0.765
1997-01-09 21:00:00,0.766,0.766
1997-01-09 22:00:00,0.766,0.764
1997-01-09 23:00:00,0.766,0.766
1997-01-10 00:00:00,0.766,0.765
1997-01-10 01:00:00,0.765,0.765
1997-01-10 02:00:00,0.766,0.765
1997-01-10 03:00:00,0.770,0.764
1997-01-10 04:00:00,0.765,0.764
1997-01-10 05:00:00,0.765,0.766
1997-01-10 06:00:00,0.765,0.767
1997-01-10 07:00:00,0.765,0.766
1997-01-10 08:00:00,0.765,0.765
1997-01-10 09:00:00,0.765,0.765
1997-01-10 10:00:00,0.765,0.765
1997-01-10 11:00:00,0.764,0.765
1997-01-10 12:00:00,0.765,0.764
1997-01-10 13:00:00,0.765,0.763
1997-01-10 14:00:00,0.765,0.764
1997-01-10 15:00:00,0.764,0.763
1997-01-10 16:00:00,0.764,0.765
1997-01-10 17:00:00,0.764,0.763
1997-01-10 18:00:00,0.764,0.765
1997-01-10 19:00:00,0.764,0.764
1997-01-10 20:00:00,0.764,0.764
1997-01-10 21:00:00,0.764,0.765
1997-01-10 22:00:00,0.764,0.764
1997-01-10 23:00:00,0.765,0.764
1997-01-11 00:00:00,0.765,0.766
1997-01-11 01:00:00,0.765,0.763
1997-01-11 02:00:00,0.765,0.764
1997-01-11 03:00:00,0.764,0.764
1997-01-11 04:00:00,0.764,0.766
1997-01-11 05:00:00,0.764,0.764
1997-01-11 06:00:00,0.764,0.764
1997-01-11 07:00:00,0.764,0.764
1997-01-11 08:00:00,0.764,0.761
1997-01-11 09:00:00,0.764,0.764
1997-01-11 10:00:00,0.764,0.763
1997-01-11 11:00:00,0.764,0.765
1997-01-11 12:00:00,0.765,0.765
1997-01-11 13:00:00,0.765,0.764
1997-01-11 14:00:00,0.764,0.764
1997-01-11 15:00:00,0.764,0.764
1997-01-11 16:00:00,0.764,0.764
1997-01-11 17:00:00,0.764,0.764
1997-01-11 18:00:00,0.764,0.761
1997-01-11 19:00:00,0.764,0.763
1997-01-11 20:00:00,0.764,0.764
1997-01-11 21:00:00,0.764,0.764
1997-01-11 22:00:00,0.763,0.764
1997-01-11 23:00:00,0.764,0.762
1997-01-12 00:00:00,0.764,0.765
1997-01-12 01:00:00,0.763,0.766
1997-01-12 02:00:00,0.763,0.765
1997-01-12 03:00:00,0.763,0.763
1997-01-12 04:00:00,0.763,0.764
1997-01-12 05:00:00,0.763,0.761
1997-01-12 06:00:00,0.762,0.763
1997-01-12 07:00:00,0.762,0.764
1997-01-12 08:00:00,0.762,0.763
1997-01-12 09:00:00,0.762,0.762
1997-01-12 10:00:00,0.762,0.763
1997-01-12 11:00:00,0.763,0.763
1997-01-12 12:00:00,0.763,0.763
1997-01-12 13:00:00,0.763,0.763
1997-01-12 14:00:00,0.764,0.764
1997-01-12 15:00:00,0.762,0.763
1997-01-12 16:00:00,0.762,0.763
1997-01-12 17:00:00,0.763,0.763
1997-01-12 18:00:00,0.764,0.765
1997-01-12 19:00:00,0.764,0.764
1997-01-12 20:00:00,0.765,0.766
1997-01-12 21:00:00,0.766,0.767
1997-01-12 22:00:00,0.767,0.768
1997-01-12 23:00:00,0.768,0.779
1997-01-13 00:00:00,0.780,0.793
1997-01-13 01:00:00,0.796,0.801
1997-01-13 02:00:00,0.804,0.804
1997-01-13 03:00:00,0.808,0.815
1997-01-13 04:00:00,0.817,0.816
1997-01-13 05:00:00,0.810,0.781
1997-01-13 06:00:00,0.768,0.763
1997-01-13 07:00:00,0.764,0.764
1997-01-13 08:00:00,0.802,0.789
1997-01-13 09:00:00,0.780,0.770
1997-01-13 10:00:00,0.776,0.794
1997-01-13 11:00:00,0.777,0.764
1997-01-13 12:00:00,0.764,0.763
1997-01-13 13:00:00,0.768,0.763
1997-01-13 14:00:00,0.770,0.793
1997-01-13 15:00:00,0.765,0.764
1997-01-13 16:00:00,0.763,0.760
1997-01-13 17:00:00,0.763,0.764
1997-01-13 18:00:00,0.764,0.764
1997-01-13 19:00:00,0.764,0.764
1997-01-13 20:00:00,0.764,0.763
1997-01-13 21:00:00,0.764,0.765
1997-01-13 22:00:00,0.764,0.762
1997-01-13 23:00:00,0.764,0.764
1997-01-14 00:00:00,0.764,0.764
1997-01-14 01:00:00,0.764,0.764
1997-01-14 02:00:00,0.764,0.764
1997-01-14 03:00:00,0.764,0.764
1997-01-14 04:00:00,0.764,0.763
1997-01-14 05:00:00,0.763,0.763
1997-01-14 06:00:00,0.763,0.763
1997-01-14 07:00:00,0.763,0.762
1997-01-14 08:00:00,0.763,0.760
1997-01-14 09:00:00,0.762,0.757
1997-01-14 10:00:00,0.762,0.764
1997-01-14 11:00:00,0.762,0.760
1997-01-14 12:00:00,0.761,0.760
1997-01-14 13:00:00,0.761,0.761
1997-01-14 14:00:00,0.761,0.765
1997-01-14 15:00:00,0.761,0.760
1997-01-14 16:00:00,0.761,0.762
1997-01-14 17:00:00,0.762,0.763
1997-01-14 18:00:00,0.763,0.767
1997-01-14 19:00:00,0.768,0.770
1997-01-14 20:00:00,0.775,0.775
1997-01-14 21:00:00,0.775,0.774
1997-01-14 22:00:00,0.772,0.781
1997-01-14 23:00:00,0.770,0.762
1997-01-15 00:00:00,0.764,0.763
1997-01-15 01:00:00,0.765,0.760
1997-01-15 02:00:00,0.762,0.763
1997-01-15 03:00:00,0.763,0.762
1997-01-15 04:00:00,0.763,0.782
1997-01-15 05:00:00,0.771,0.765
1997-01-15 06:00:00,0.770,0.802
1997-01-15 07:00:00,0.786,0.799
1997-01-15 08:00:00,0.830,0.852
1997-01-15 09:00:00,0.841,0.831
1997-01-15 10:00:00,0.836,0.838
1997-01-15 11:00:00,0.865,0.889
1997-01-15 12:00:00,0.895,0.899
1997-01-15 13:00:00,0.895,0.886
1997-01-15 14:00:00,0.857,0.846
1997-01-15 15:00:00,0.836,0.833
1997-01-15 16:00:00,0.822,0.815
1997-01-15 17:00:00,0.803,0.797
1997-01-15 18:00:00,0.799,0.798
1997-01-15 19:00:00,0.798,0.799
1997-01-15 20:00:00,0.795,0.791
1997-01-15 21:00:00,0.783,0.777
1997-01-15 22:00:00,0.767,0.765
1997-01-15 23:00:00,0.805,0.822
1997-01-16 00:00:00,0.879,0.929
1997-01-16 01:00:00,0.885,0.913
1997-01-16 02:00:00,0.835,0.765
1997-01-16 03:00:00,0.761,0.761
1997-01-16 04:00:00,0.795,0.785
1997-01-16 05:00:00,0.775,0.760
1997-01-16 06:00:00,0.765,0.761
1997-01-16 07:00:00,0.761,0.762
1997-01-16 08:00:00,0.765,0.758
1997-01-16 09:00:00,0.761,0.762
1997-01-16 10:00:00,0.761,0.759
1997-01-16 11:00:00,0.761,0.762
1997-01-16 12:00:00,0.761,0.763
1997-01-16 13:00:00,0.761,0.761
1997-01-16 14:00:00,0.762,0.761
1997-01-16 15:00:00,0.762,0.761
1997-01-16 16:00:00,0.761,0.761
1997-01-16 17:00:00,0.761,0.760
1997-01-16 18:00:00,0.761,0.760
1997-01-16 19:00:00,0.761,0.762
1997-01-16 20:00:00,0.761,0.758
1997-01-16 21:00:00,0.760,0.760
1997-01-16 22:00:00,0.760,0.758
1997-01-16 23:00:00,0.761,0.759
1997-01-17 00:00:00,0.759,0.759
1997-01-17 01:00:00,0.760,0.762
1997-01-17 02:00:00,0.758,0.758
1997-01-17 03:00:00,0.759,0.758
1997-01-17 04:00:00,0.759,0.762
1997-01-17 05:00:00,0.759,0.757
1997-01-17 06:00:00,0.760,0.760
1997-01-17 07:00:00,0.760,0.764
1997-01-17 08:00:00,0.761,0.759
1997-01-17 09:00:00,0.761,0.761
1997-01-17 10:00:00,0.761,0.760
1997-01-17 11:00:00,0.761,0.762
1997-01-17 12:00:00,0.760,0.757
1997-01-17 13:00:00,0.762,0.760
1997-01-17 14:00:00,0.765,0.769
1997-01-17 15:00:00,0.772,0.774
1997-01-17 16:00:00,0.779,0.782
1997-01-17 17:00:00,0.786,0.789
1997-01-17 18:00:00,0.790,0.792
1997-01-17 19:00:00,0.791,0.785
1997-01-17 20:00:00,0.788,0.798
1997-01-17 21:00:00,0.805,0.823
1997-01-17 22:00:00,0.823,0.827
1997-01-17 23:00:00,0.831,0.836
1997-01-18 00:00:00,0.833,0.847
1997-01-18 01:00:00,0.849,0.863
1997-01-18 02:00:00,0.863,0.871
1997-01-18 03:00:00,0.872,0.882
1997-01-18 04:00:00,0.879,0.878
1997-01-18 05:00:00,0.883,0.894
1997-01-18 06:00:00,0.888,0.889
1997-01-18 07:00:00,0.893,0.897
1997-01-18 08:00:00,0.894,0.902
1997-01-18 09:00:00,0.898,0.902
1997-01-18 10:00:00,0.900,0.899
1997-01-18 11:00:00,0.899,0.891
1997-01-18 12:00:00,0.888,0.883
1997-01-18 13:00:00,0.865,0.852
1997-01-18 14:00:00,0.848,0.851
1997-01-18 15:00:00,0.858,0.868
1997-01-18 16:00:00,0.812,0.761
1997-01-18 17:00:00,0.763,0.790
1997-01-18 18:00:00,0.784,0.795
1997-01-18 19:00:00,0.779,0.749
1997-01-18 20:00:00,0.747,0.738
1997-01-18 21:00:00,0.750,0.767
1997-01-18 22:00:00,0.766,0.780
1997-01-18 23:00:00,0.773,0.795
1997-01-19 00:00:00,0.786,0.785
1997-01-19 01:00:00,0.755,0.789
1997-01-19 02:00:00,0.790,0.795
1997-01-19 03:00:00,0.795,0.793
1997-01-19 04:00:00,0.802,0.814
1997-01-19 05:00:00,0.811,0.822
1997-01-19 06:00:00,0.807,0.799
1997-01-19 07:00:00,0.807,0.798
1997-01-19 08:00:00,0.817,0.815
1997-01-19 09:00:00,0.826,0.833
1997-01-19 10:00:00,0.834,0.842
1997-01-19 11:00:00,0.817,0.813
1997-01-19 12:00:00,0.866,0.858
1997-01-19 13:00:00,0.880,0.849
1997-01-19 14:00:00,0.892,2.448
1997-01-19 15:00:00,0.882,0.824
1997-01-19 16:00:00,0.880,0.868
1997-01-19 17:00:00,0.866,0.875
1997-01-19 18:00:00,0.873,0.855
1997-01-19 19:00:00,0.873,0.862
1997-01-19 20:00:00,0.872,0.871
1997-01-19 21:00:00,0.874,0.871
1997-01-19 22:00:00,0.876,0.848
1997-01-19 23:00:00,0.872,0.880
1997-01-20 00:00:00,0.874,0.860
1997-01-20 01:00:00,0.869,0.872
1997-01-20 02:00:00,0.870,0.875
1997-01-20 03:00:00,0.869,0.871
1997-01-20 04:00:00,0.873,0.889
1997-01-20 05:00:00,0.819,0.767
1997-01-20 06:00:00,0.848,0.871
1997-01-20 07:00:00,0.827,0.787
1997-01-20 08:00:00,0.774,0.761
1997-01-20 09:00:00,0.778,0.782
1997-01-20 10:00:00,0.816,0.821
1997-01-20 11:00:00,0.853,0.858
1997-01-20 12:00:00,0.806,0.776
1997-01-20 13:00:00,0.763,0.763
1997-01-20 14:00:00,0.761,0.760
1997-01-20 15:00:00,0.761,0.762
1997-01-20 16:00:00,0.761,0.762
1997-01-20 17:00:00,0.761,0.762
1997-01-20 18:00:00,0.761,0.762
1997-01-20 19:00:00,0.761,0.761
1997-01-20 20:00:00,0.813,0.851
1997-01-20 21:00:00,0.846,0.866
1997-01-20 22:00:00,0.880,0.894
1997-01-20 23:00:00,0.896,0.911
1997-01-21 00:00:00,0.918,0.925
1997-01-21 01:00:00,0.942,0.930
1997-01-21 02:00:00,0.941,0.932
1997-01-21 03:00:00,0.949,0.953
1997-01-21 04:00:00,0.939,0.927
1997-01-21 05:00:00,0.939,0.964
1997-01-21 06:00:00,0.962,0.946
1997-01-21 07:00:00,0.976,0.974
1997-01-21 08:00:00,0.976,0.966
1997-01-21 09:00:00,0.967,0.976
1997-01-21 10:00:00,0.986,1.018
1997-01-21 11:00:00,1.036,1.051
1997-01-21 12:00:00,1.040,1.020
1997-01-21 13:00:00,1.038,1.027
1997-01-21 14:00:00,1.053,1.051
1997-01-21 15:00:00,1.065,1.063
1997-01-21 16:00:00,1.044,1.028
1997-01-21 17:00:00,1.048,1.055
1997-01-21 18:00:00,1.098,1.095
1997-01-21 19:00:00,1.109,1.133
1997-01-21 20:00:00,1.120,1.126
1997-01-21 21:00:00,1.116,1.126
1997-01-21 22:00:00,1.130,1.138
1997-01-21 23:00:00,1.102,1.095
1997-01-22 00:00:00,1.084,1.077
1997-01-22 01:00:00,1.077,1.074
1997-01-22 02:00:00,1.084,1.066
1997-01-22 03:00:00,1.085,1.070
1997-01-22 04:00:00,1.088,1.090
1997-01-22 05:00:00,1.094,1.091
1997-01-22 06:00:00,1.089,1.091
1997-01-22 07:00:00,1.088,1.086
1997-01-22 08:00:00,1.077,1.085
1997-01-22 09:00:00,1.104,1.146
1997-01-22 10:00:00,1.145,1.158
1997-01-22 11:00:00,1.133,1.087
1997-01-22 12:00:00,1.102,1.105
1997-01-22 13:00:00,1.099,1.071
1997-01-22 14:00:00,1.079,1.088
1997-01-22 15:00:00,1.081,1.112
1997-01-22 16:00:00,1.059,1.052
1997-01-22 17:00:00,1.047,1.044
1997-01-22 18:00:00,1.043,1.053
1997-01-22 19:00:00,1.038,1.049
1997-01-22 20:00:00,1.030,1.043
1997-01-22 21:00:00,1.010,1.000
1997-01-22 22:00:00,0.997,0.990
1997-01-22 23:00:00,0.988,0.994
1997-01-23 00:00:00,0.994,0.994
1997-01-23 01:00:00,0.985,0.987
1997-01-23 02:00:00,0.976,0.939
1997-01-23 03:00:00,0.937,0.907
1997-01-23 04:00:00,0.901,0.883
1997-01-23 05:00:00,0.878,0.879
1997-01-23 06:00:00,0.884,0.880
1997-01-23 07:00:00,0.877,0.878
1997-01-23 08:00:00,0.877,0.875
1997-01-23 09:00:00,0.877,0.876
1997-01-23 10:00:00,0.877,0.876
1997-01-23 11:00:00,0.877,0.876
1997-01-23 12:00:00,0.877,0.875
1997-01-23 13:00:00,0.878,0.876
1997-01-23 14:00:00,0.875,0.888
1997-01-23 15:00:00,0.936,0.937
1997-01-23 16:00:00,0.944,0.990
1997-01-23 17:00:00,0.971,0.965
1997-01-23 18:00:00,1.009,1.047
1997-01-23 19:00:00,1.059,1.072
1997-01-23 20:00:00,1.079,1.111
1997-01-23 21:00:00,1.116,1.080
1997-01-23 22:00:00,1.082,1.102
1997-01-23 23:00:00,1.069,1.050
1997-01-24 00:00:00,1.003,0.895
1997-01-24 01:00:00,0.884,0.876
1997-01-24 02:00:00,0.872,0.874
1997-01-24 03:00:00,0.872,0.871
1997-01-24 04:00:00,0.871,0.870
1997-01-24 05:00:00,0.872,0.869
1997-01-24 06:00:00,0.871,0.871
1997-01-24 07:00:00,0.871,0.872
1997-01-24 08:00:00,0.870,0.870
1997-01-24 09:00:00,0.923,0.965
1997-01-24 10:00:00,0.961,0.960
1997-01-24 11:00:00,0.959,0.960
1997-01-24 12:00:00,0.958,0.959
1997-01-24 13:00:00,0.957,0.954
1997-01-24 14:00:00,0.959,0.959
1997-01-24 15:00:00,0.959,0.959
1997-01-24 16:00:00,0.957,0.957
1997-01-24 17:00:00,0.956,0.955
1997-01-24 18:00:00,0.956,0.957
1997-01-24 19:00:00,0.956,0.957
1997-01-24 20:00:00,0.955,0.954
1997-01-24 21:00:00,0.955,0.951
1997-01-24 22:00:00,0.954,0.953
1997-01-24 23:00:00,0.954,0.957
1997-01-25 00:00:00,0.953,0.957
1997-01-25 01:00:00,0.953,0.950
1997-01-25 02:00:00,0.953,0.961
1997-01-25 03:00:00,0.954,0.956
1997-01-25 04:00:00,0.956,0.959
1997-01-25 05:00:00,0.954,0.949
1997-01-25 06:00:00,0.949,0.947
1997-01-25 07:00:00,0.945,0.946
1997-01-25 08:00:00,0.941,0.941
1997-01-25 09:00:00,0.940,0.937
1997-01-25 10:00:00,0.936,0.931
1997-01-25 11:00:00,0.928,0.927
1997-01-25 12:00:00,0.924,0.921
1997-01-25 13:00:00,0.929,0.954
1997-01-25 14:00:00,0.924,0.917
1997-01-25 15:00:00,0.926,0.942
1997-01-25 16:00:00,0.922,0.948
1997-01-25 17:00:00,0.933,0.959
1997-01-25 18:00:00,0.952,0.923
1997-01-25 19:00:00,0.897,0.875
1997-01-25 20:00:00,0.852,0.831
1997-01-25 21:00:00,0.825,0.816
1997-01-25 22:00:00,0.833,0.836
1997-01-25 23:00:00,0.810,0.800
1997-01-26 00:00:00,0.801,0.802
1997-01-26 01:00:00,0.787,0.783
1997-01-26 02:00:00,0.778,0.769
1997-01-26 03:00:00,0.765,0.767
1997-01-26 04:00:00,0.765,0.765
1997-01-26 05:00:00,0.765,0.763
1997-01-26 06:00:00,0.846,0.837
1997-01-26 07:00:00,0.835,0.829
1997-01-26 08:00:00,0.848,0.847
1997-01-26 09:00:00,0.812,0.791
1997-01-26 10:00:00,0.782,0.781
1997-01-26 11:00:00,0.781,0.780
1997-01-26 12:00:00,0.777,0.776
1997-01-26 13:00:00,0.777,0.779
1997-01-26 14:00:00,0.778,0.778
1997-01-26 15:00:00,0.778,0.777
1997-01-26 16:00:00,0.777,0.775
1997-01-26 17:00:00,0.777,0.776
1997-01-26 18:00:00,0.778,0.777
1997-01-26 19:00:00,0.777,0.777
1997-01-26 20:00:00,0.777,0.791
1997-01-26 21:00:00,0.796,0.783
1997-01-26 22:00:00,0.776,0.776
1997-01-26 23:00:00,0.777,0.779
1997-01-27 00:00:00,0.777,0.777
1997-01-27 01:00:00,0.777,0.776
1997-01-27 02:00:00,0.777,0.777
1997-01-27 03:00:00,0.777,0.776
1997-01-27 04:00:00,0.776,0.775
1997-01-27 05:00:00,0.776,0.779
1997-01-27 06:00:00,0.795,0.803
1997-01-27 07:00:00,0.797,0.789
1997-01-27 08:00:00,0.791,0.790
1997-01-27 09:00:00,0.813,0.829
1997-01-27 10:00:00,0.878,0.915
1997-01-27 11:00:00,0.945,0.951
1997-01-27 12:00:00,0.963,0.952
1997-01-27 13:00:00,0.952,0.966
1997-01-27 14:00:00,0.989,0.994
1997-01-27 15:00:00,1.007,1.039
1997-01-27 16:00:00,1.045,1.063
1997-01-27 17:00:00,1.062,1.064
1997-01-27 18:00:00,1.071,1.064
1997-01-27 19:00:00,1.058,1.056
1997-01-27 20:00:00,1.055,1.053
1997-01-27 21:00:00,1.048,1.045
1997-01-27 22:00:00,1.046,1.050
1997-01-27 23:00:00,1.049,1.043
1997-01-28 00:00:00,1.049,1.047
1997-01-28 01:00:00,1.043,1.038
1997-01-28 02:00:00,1.035,1.032
1997-01-28 03:00:00,1.032,1.030
1997-01-28 04:00:00,1.023,1.026
1997-01-28 05:00:00,1.019,1.019
1997-01-28 06:00:00,1.018,1.016
1997-01-28 07:00:00,1.015,1.012
1997-01-28 08:00:00,1.008,1.006
1997-01-28 09:00:00,1.006,1.004
1997-01-28 10:00:00,1.002,1.001
1997-01-28 11:00:00,0.997,0.993
1997-01-28 12:00:00,0.991,0.984
1997-01-28 13:00:00,1.005,1.011
1997-01-28 14:00:00,1.011,0.994
1997-01-28 15:00:00,0.990,0.985
1997-01-28 16:00:00,0.998,0.999
1997-01-28 17:00:00,0.998,0.995
1997-01-28 18:00:00,0.989,0.984
1997-01-28 19:00:00,0.984,0.981
1997-01-28 20:00:00,0.994,1.002
1997-01-28 21:00:00,0.994,1.008
1997-01-28 22:00:00,1.008,1.010
1997-01-28 23:00:00,1.007,1.008
1997-01-29 00:00:00,1.004,1.000
1997-01-29 01:00:00,1.008,1.023
1997-01-29 02:00:00,1.016,1.026
1997-01-29 03:00:00,1.016,1.002
1997-01-29 04:00:00,0.999,0.994
1997-01-29 05:00:00,0.985,0.980
1997-01-29 06:00:00,0.977,0.974
1997-01-29 07:00:00,0.974,0.979
1997-01-29 08:00:00,0.994,0.973
1997-01-29 09:00:00,0.967,0.967
1997-01-29 10:00:00,0.969,0.972
1997-01-29 11:00:00,0.965,0.958
1997-01-29 12:00:00,0.961,0.956
1997-01-29 13:00:00,0.964,0.964
1997-01-29 14:00:00,0.978,0.995
1997-01-29 15:00:00,0.988,0.984
1997-01-29 16:00:00,0.969,0.961
1997-01-29 17:00:00,0.975,0.976
1997-01-29 18:00:00,1.009,1.006
1997-01-29 19:00:00,0.987,0.981
1997-01-29 20:00:00,0.988,0.954
1997-01-29 21:00:00,0.950,0.950
1997-01-29 22:00:00,0.943,0.940
1997-01-29 23:00:00,0.942,0.941
1997-01-30 00:00:00,0.940,0.939
1997-01-30 01:00:00,0.938,0.938
1997-01-30 02:00:00,0.937,0.938
1997-01-30 03:00:00,0.937,0.938
1997-01-30 04:00:00,0.937,0.938
1997-01-30 05:00:00,0.936,0.937
1997-01-30 06:00:00,0.935,0.935
1997-01-30 07:00:00,0.933,0.934
1997-01-30 08:00:00,0.938,0.975
1997-01-30 09:00:00,0.992,0.997
1997-01-30 10:00:00,1.048,1.076
1997-01-30 11:00:00,1.053,1.025
1997-01-30 12:00:00,1.020,1.013
1997-01-30 13:00:00,1.049,1.043
1997-01-30 14:00:00,1.037,0.990
1997-01-30 15:00:00,0.982,0.958
1997-01-30 16:00:00,0.940,0.932
1997-01-30 17:00:00,0.943,0.946
1997-01-30 18:00:00,0.973,0.987
1997-01-30 19:00:00,1.017,1.063
1997-01-30 20:00:00,1.069,1.028
1997-01-30 21:00:00,1.006,0.997
1997-01-30 22:00:00,1.015,1.058
1997-01-30 23:00:00,1.084,1.067
1997-01-31 00:00:00,1.039,1.021
1997-01-31 01:00:00,1.020,1.001
1997-01-31 02:00:00,0.986,0.997
1997-01-31 03:00:00,0.986,0.993
1997-01-31 04:00:00,0.989,0.970
1997-01-31 05:00:00,0.969,0.966
1997-01-31 06:00:00,0.963,0.958
1997-01-31 07:00:00,0.967,0.994
1997-01-31 08:00:00,1.067,1.143
1997-01-31 09:00:00,1.105,1.077
1997-01-31 10:00:00,1.038,1.019
1997-01-31 11:00:00,1.001,0.980
1997-01-31 12:00:00,0.971,0.960
1997-01-31 13:00:00,0.960,0.971
1997-01-31 14:00:00,1.025,1.048
1997-01-31 15:00:00,1.034,1.019
1997-01-31 16:00:00,0.999,0.990
1997-01-31 17:00:00,0.986,0.986
1997-01-31 18:00:00,0.987,1.003
1997-01-31 19:00:00,1.029,1.035
1997-01-31 20:00:00,1.031,1.032
1997-01-31 21:00:00,1.031,1.028
1997-01-31 22:00:00,1.025,1.016
1997-01-31 23:00:00,1.012,1.006
1997-02-01 00:00:00,0.999,0.994
1997-02-01 01:00:00,0.996,0.995
1997-02-01 02:00:00,0.995,0.994
1997-02-01 03:00:00,0.992,0.988
1997-02-01 04:00:00,0.987,0.991
1997-02-01 05:00:00,0.996,0.991
1997-02-01 06:00:00,1.001,1.064